星链-30407 (STARLINK-30407 )

导读

STARLINK-30407是美国SpaceX公司星链(Starlink)低轨互联网星座中的一颗卫星,于2023年9月9日发射升空。星链星座旨在为全球尤其是基础设施匮乏地区提供高速低延迟宽带互联网服务,该卫星运行于近地轨道,作为星链网络的组成部分,助力实现全球卫星互联网覆盖,单颗星链卫星设计寿命超过5年,后续将和星座其他卫星共同提供互联网接入服务。

基本信息
目录编号:
57823
目录名称:
STARLINK-30407
国际标识:
2023-138R
轨道中心:
EARTH
卫星名称:
星链-30407
卫星全名:
星链-30407 (STARLINK-30407 )
卫星状态:
在轨 (已飞行1013 天)
发射日期:
2023-09-09 UTC
国别 :
美国 (US)
星等 :
--
轨道信息
数据来源 国际轨道数据
星历时间: 2026-06-17T09:23:18+0800
1天前
查看轨道信息
半长轴: 6861.247km
偏心率: 0.0001882
轨道倾角: 43.014°
近地点辐角 275.892°
升交点赤经 287.604°
平近点角 84.171°
近地点: 481.818km
远地点: 484.402km
周期: 94.268分钟
每日圈数: 15.275598
详细信息
固有亮度:
5
最大亮度:
0.3
卫星平台:
Starlink v2.0 mini
覆盖范围:
全球
运营商:
太空探索技术公司
运营商所在国:
美国
制造商(研发单位):
太空探索技术公司
制造商所在国:
美国
使用方式:
暂无
卫星简介
星链(Starlink)计划是由太空探索技术公司(SpaceX)提出的一个巨型低轨卫星互联网星座项目,计划在2019年至2024年间在太空搭建由约1.2万颗卫星组成的“星链”网络,其中1584颗将部署在地球上空550千米处的近地轨道,并从2020年开始工作。该卫星仍在工作。
2D轨道图
3D轨道图
轨道高度分析图
轨道倾角分析图
轨道综合分析图
查看轨道综合分析图